Home   Weather   Milwaukee   Past weeks

Flag for USA Past Weather in Milwaukee, Wisconsin, USA — Yesterday and Last 2 Weeks

Now
34 °F

Fog.


Feels Like: 28 °F
Forecast: 34 / 37 °F
Wind: 7 mph from East

Location: Milwaukee / Timmerman

Current Time: Jan 16, 2017 at 11:11:18 pm

Latest Report: Jan 16, 2017 at 10:15 pm


Visibility: 4 mi

Pressure: 29.95 "Hg

Humidity: 93%

Dew Point: 32 °F

Location of MilwaukeeLocation

Past Weather in Milwaukee — Graph

°F

Milwaukee Temperature Yesterday

Maximum temperature yesterday: 36 °F (at 1:45 pm)
Minimum temperature yesterday: 14 °F (at 2:15 am)
Average temperature yesterday: 22 °F

High & Low Weather Summary for the Past Weeks

 TemperatureHumidityPressure
High46 °F (Jan 10, 2:45 pm)93% (Jan 2, 5:15 am)30.81 "Hg (Jan 2, 5:15 am)
Low-2 °F (Jan 6, 6:55 am)35% (Jan 15, 1:45 pm)29.12 "Hg (Jan 10, 2:45 pm)
Average19 °F69%30.17 "Hg
* Reported Jan 1 9:35 pm — Jan 16 9:35 pm, Milwaukee, Weather by CustomWeather, © 2017

Note: Actual official high and low records may vary slightly from our data, if they occured in-between our weather recording intervals... More about our weather records

Advertising

Milwaukee Weather History for the Previous 24 Hours

Scroll right to see more
 ConditionsComfort  
Time TempWeatherWind HumidityBarometerVisibility
9:35 pm
Mon, Jan 16
34 °FLight rain. Low clouds.12 mph93%29.95 "Hg3 mi
8:45 pm36 °FFog.7 mph93%30.00 "Hg2 mi
7:45 pm36 °FFog.8 mph87%30.04 "Hg2 mi
6:45 pm34 °FFog.9 mph93%30.04 "Hg2 mi
5:45 pm34 °FFog.6 mph93%30.08 "Hg2 mi
4:45 pm34 °FFog.7 mph87%30.10 "Hg2 mi
3:45 pm34 °FFog.8 mph87%30.11 "Hg2 mi
2:45 pm34 °FFog.5 mph87%30.12 "Hg2 mi
1:45 pm34 °FFog.6 mph87%30.14 "Hg2 mi
12:45 pm34 °FDrizzle. Mostly cloudy.7 mph87%30.18 "Hg2 mi
11:45 am34 °FDrizzle. Mostly cloudy.5 mph87%30.21 "Hg2 mi
10:45 am32 °FIce fog.6 mph80%30.24 "Hg3 mi
9:45 am30 °FIcy mix. Cloudy.No wind86%30.26 "Hg2 mi
8:45 am30 °FLight freezing rain. Cloudy.No wind80%30.26 "Hg2 mi
7:45 am30 °FLight freezing rain. Mostly cloudy.No wind75%30.27 "Hg2 mi
7:30 am28 °FLight freezing rain. More clouds than sun.No wind80%30.27 "Hg2 mi
6:55 am28 °FLight snow. Mostly cloudy.5 mph74%30.26 "Hg5 mi
6:15 am28 °FOvercast.No wind74%30.27 "Hg10 mi
5:35 am27 °FOvercast.No wind80%30.28 "Hg10 mi
4:55 am27 °FOvercast.No wind74%30.28 "Hg10 mi
4:15 am25 °FClear.No wind80%30.28 "Hg7 mi
3:35 am23 °FClear.No wind86%30.27 "Hg7 mi
2:55 am23 °FClear.No wind80%30.28 "Hg10 mi
2:15 am23 °FClear.No wind80%30.29 "Hg10 mi
1:55 am23 °FClear.No wind80%30.29 "Hg7 mi
1:15 am21 °FClear.No wind80%30.29 "Hg7 mi
12:35 am23 °FClear.No wind80%30.29 "Hg10 mi
11:55 pm
Sun, Jan 15
23 °FClear.No wind74%30.29 "Hg7 mi
11:15 pm23 °FClear.No wind80%30.30 "Hg10 mi
Weather by CustomWeather, © 2017

See weather overviewHow to use our weather pages